This demonstration page uses our WeatherBlox Daily Observations layout. Learn more.

41.55636, -103.73856

Hourly Observations for June 19, 2020

Temp ( °F °C ) Dew Point ( °F °C ) Humidity (%) Winds ( mph kmh ) Pressure ( in mb ) Visibility ( mi km ) Precip ( " mm )
1:58 am 01:58 Clear 69 20.5 35 1.6 29 29 ENE 5 7 30.04 1017 10 16.0934 0 0
2:58 am 02:58 Clear 62 16.9 36 2 37 37 E 9 15 30.07 1018 10 16.0934 0 0
3:58 am 03:58 Clear 58 14.5 37 2.9 46 46 SE 13 20 30.09 1019 10 16.0934 0 0
4:58 am 04:58 Partly Cloudy 59 14.9 37 2.5 43 43 SE 9 15 30.09 1019 10 16.0934 0 0
5:58 am 05:58 Mostly Cloudy 59 14.9 38 3.2 46 46 S 10 17 30.08 1019 10 16.0934 0 0
6:58 am 06:58 Mostly Cloudy 60 15.6 38 3.3 44 44 S 5 7 30.07 1018 10 16.0934 0 0
7:58 am 07:58 Cloudy 57 13.7 42 5.3 57 57 SSW 6 9 30.06 1018 10 16.0934 0 0
8:58 am 08:58 Mostly Cloudy 57 14.1 45 7 63 63 SSE 17 28 30.06 1018 10 16.0934 0 0
9:58 am 09:58 Mostly Cloudy 55 13 47 8.4 74 74 S 21 33 30.04 1017 10 16.0934 0 0
10:58 am 10:58 Mostly Cloudy 56 13.1 47 8.3 73 73 SSE 9 15 30.08 1019 10 16.0934 0 0
11:58 am 11:58 Cloudy with Light Rain 54 12.3 49 9.4 83 83 SE 5 7 30.1 1019 10 16.0934 0.02 0.508
12:58 pm 12:58 Cloudy with Light Rain 53 11.7 51 10.4 92 92 E 5 7 30.11 1020 10 16.0934 0.04 1.016
1:58 pm 13:58 Cloudy with Light Rain 54 12.3 51 10.5 89 89 SSE 17 28 30.09 1019 10 16.0934 0.04 1.016
2:58 pm 14:58 Partly Cloudy 56 13.1 50 10.2 83 83 SSE 9 15 30.11 1020 10 16.0934 0 0
3:58 pm 15:58 Mostly Cloudy 56 13.3 50 10.1 81 81 SE 14 22 30.11 1020 10 16.0934 0 0
4:58 pm 16:58 Mostly Sunny 58 14.2 49 9.3 73 73 SE 16 26 30.1 1019 10 16.0934 0 0
5:58 pm 17:58 Mostly Cloudy 65 18.1 45 7.4 50 50 SSE 21 33 30.07 1018 10 16.0934 0 0
6:58 pm 18:58 Mostly Cloudy 67 19.2 46 7.8 48 48 SSE 22 35 30.03 1017 10 16.0934 0 0
7:58 pm 19:58 Mostly Cloudy 68 19.9 45 7.3 44 44 SSE 24 39 30.01 1016 10 16.0934 0 0
8:58 pm 20:58 Mostly Cloudy 70 21.1 46 7.6 42 42 S 16 26 30 1016 10 16.0934 0 0
9:58 pm 21:58 Mostly Cloudy with Light Rain 65 18.4 46 7.9 51 51 S 16 26 30.02 1017 10 16.0934 0 0
10:58 pm 22:58 Partly Cloudy 67 19.5 45 7.4 46 46 SSE 9 15 29.99 1016 10 16.0934 0 0
11:58 pm 23:58 Mostly Cloudy 69 20.4 43 6.3 40 40 S 10 17 29.99 1016 10 16.0934 0 0

Powered by AerisWeather